| time (UTC) | temp C | wind direction | speed KPH | gust KPH | rain 1hr cm | rain 24hr cm | rain mn cm | humidity % | barometer mb |
| 20260906023130 | -41 | 238 | 8.0 | 14.5 | 0.00 | 0.00 | 0.00 | 1012.3 | |
| 20260906021603 | -41 | 217 | 3.2 | 16.1 | 0.00 | 0.00 | 0.00 | 1012.3 | |
| 20260906020058 | -42 | 259 | 1.6 | 9.7 | 0.00 | 0.00 | 0.00 | 1012.3 | |
| 20260906014623 | -42 | 235 | 3.2 | 19.3 | 0.00 | 0.00 | 0.00 | 1012.2 | |
| 20260906013101 | -41 | 251 | 3.2 | 17.7 | 0.00 | 0.00 | 0.00 | 1012.1 | |
| 20260906011559 | -41 | 261 | 6.4 | 16.1 | 0.00 | 0.00 | 0.00 | 1012.0 | |
| 20260906010106 | -41 | 246 | 4.8 | 16.1 | 0.00 | 0.00 | 0.00 | 1012.1 | |
| 20260906004613 | -41 | 236 | 8.0 | 19.3 | 0.00 | 0.00 | 0.00 | 1012.0 | |
| 20260906003057 | -41 | 214 | 6.4 | 14.5 | 0.00 | 0.00 | 0.00 | 1012.0 | |
| 20260906001605 | -41 | 248 | 6.4 | 16.1 | 0.00 | 0.00 | 0.00 | 1012.0 | |
| 20260906000110 | -41 | 250 | 4.8 | 12.9 | 0.00 | 0.00 | 0.00 | 1011.9 | |
| 20260905234602 | -41 | 203 | 4.8 | 11.3 | 0.00 | 0.00 | 0.00 | 1011.9 | |
| 20260905233059 | -41 | 221 | 4.8 | 11.3 | 0.00 | 0.00 | 0.00 | 1011.9 | |
| 20260905231555 | -41 | 224 | 6.4 | 11.3 | 0.00 | 0.00 | 0.00 | 1011.9 | |
| 20260905230103 | -40 | 227 | 3.2 | 17.7 | 0.00 | 0.00 | 0.00 | 1012.0 | |
| 20260905224608 | -40 | 220 | 6.4 | 17.7 | 0.00 | 0.00 | 0.00 | 1012.1 | |
| 20260905223101 | -40 | 157 | 4.8 | 14.5 | 0.00 | 0.00 | 0.00 | 1012.1 | |
| 20260905221602 | -40 | 209 | 6.4 | 17.7 | 0.00 | 0.00 | 0.00 | 1012.2 | |
| 20260905220118 | -40 | 236 | 11.3 | 19.3 | 0.00 | 0.00 | 0.00 | 1012.2 | |
| 20260905214605 | -40 | 251 | 6.4 | 19.3 | 0.00 | 0.00 | 0.00 | 1012.3 | |
| 20260905213104 | -40 | 180 | 9.7 | 16.1 | 0.00 | 0.00 | 0.00 | 1012.5 | |
| 20260905211610 | -40 | 217 | 9.7 | 24.1 | 0.00 | 0.00 | 0.00 | 1012.4 | |
| 20260905204555 | -40 | 178 | 11.3 | 22.5 | 0.00 | 0.00 | 0.00 | 1012.2 | |
| 20260905203102 | -40 | 182 | 11.3 | 27.4 | 0.00 | 0.00 | 0.00 | 1012.3 | |
| 20260905201559 | -40 | 291 | 12.9 | 24.1 | 0.00 | 0.00 | 0.00 | 1012.6 | |
| 20260905200101 | -40 | 247 | 8.0 | 27.4 | 0.00 | 0.00 | 0.00 | 1012.7 | |
| 20260905194558 | -40 | 242 | 11.3 | 20.9 | 0.00 | 0.00 | 0.00 | 1012.9 | |
| 20260905193139 | -40 | 180 | 9.7 | 22.5 | 0.00 | 0.00 | 0.00 | 1013.3 | |
| 20260905191603 | -40 | 157 | 11.3 | 20.9 | 0.00 | 0.00 | 0.00 | 1013.5 | |
| 20260905190114 | -40 | 202 | 12.9 | 25.7 | 0.00 | 0.00 | 0.00 | 1013.5 | |
| 20260905184603 | -39 | 198 | 8.0 | 19.3 | 0.00 | 0.00 | 0.00 | 1013.7 | |
| 20260905183112 | -40 | 180 | 9.7 | 24.1 | 0.00 | 0.00 | 0.00 | 1014.0 | |
| 20260905181605 | -39 | 180 | 9.7 | 22.5 | 0.00 | 0.00 | 0.00 | 1014.0 | |
| 20260905180059 | -40 | 171 | 9.7 | 24.1 | 0.00 | 0.00 | 0.00 | 1014.1 | |
| 20260905174555 | -40 | 213 | 12.9 | 24.1 | 0.00 | 0.00 | 0.00 | 1014.3 | |
| 20260905173059 | -40 | 200 | 9.7 | 19.3 | 0.00 | 0.00 | 0.00 | 1014.1 | |
| 20260905171603 | -40 | 225 | 6.4 | 20.9 | 0.00 | 0.00 | 0.00 | 1014.4 | |
| 20260905170104 | -40 | 208 | 8.0 | 19.3 | 0.00 | 0.00 | 0.00 | 1014.4 | |
| 20260905164607 | -40 | 238 | 11.3 | 22.5 | 0.00 | 0.03 | 0.00 | 1014.4 | |
| 20260905163058 | -40 | 175 | 11.3 | 22.5 | 0.00 | 0.03 | 0.00 | 1014.5 | |
| 20260905161605 | -40 | 239 | 8.0 | 19.3 | 0.00 | 0.03 | 0.00 | 1014.6 | |
| 20260905160124 | -40 | 318 | 3.2 | 20.9 | 0.00 | 0.03 | 0.00 | 1014.7 | |
| 20260905154604 | -40 | 237 | 8.0 | 20.9 | 0.00 | 0.03 | 0.00 | 1014.6 | |
| 20260905153112 | -41 | 227 | 9.7 | 19.3 | 0.00 | 0.03 | 0.00 | 1014.4 | |
| 20260905151609 | -41 | 248 | 4.8 | 14.5 | 0.00 | 0.03 | 0.00 | 1014.5 | |
| 20260905150104 | -41 | 284 | 4.8 | 20.9 | 0.00 | 0.03 | 0.00 | 1014.6 | |
| 20260905144600 | -41 | 196 | 3.2 | 14.5 | 0.00 | 0.13 | 0.00 | 1014.5 | |
| 20260905143107 | -41 | 252 | 6.4 | 14.5 | 0.00 | 0.13 | 0.00 | 1014.4 | |
| 20260905141559 | -41 | 233 | 3.2 | 12.9 | 0.00 | 0.13 | 0.00 | 1014.3 | |
| 20260905140110 | -41 | 232 | 6.4 | 12.9 | 0.00 | 0.13 | 0.00 | 1014.3 | |
| 20260905134605 | -41 | 167 | 1.6 | 11.3 | 0.00 | 0.18 | 0.00 | 1014.2 | |
| 20260905133107 | -41 | 0 | 0.0 | 0.0 | 0.00 | 0.18 | 0.00 | 1014.2 | |
| 20260905131608 | -41 | 0 | 0.0 | 1.6 | 0.00 | 0.18 | 0.00 | 1014.2 | |
| 20260905130115 | -42 | 0 | 0.0 | 3.2 | 0.00 | 0.18 | 0.00 | 1014.2 | |
| 20260905124600 | -42 | 0 | 0.0 | 3.2 | 0.00 | 0.18 | 0.00 | 1014.0 | |
| 20260905123102 | -43 | 0 | 0.0 | 3.2 | 0.00 | 0.18 | 0.00 | 1014.1 | |
| 20260905121555 | -43 | 0 | 0.0 | 0.0 | 0.00 | 0.18 | 0.00 | 1014.0 | |
| 20260905120113 | -43 | 0 | 0.0 | 0.0 | 0.00 | 0.18 | 0.00 | 1013.8 | |
| 20260905114559 | -43 | 0 | 0.0 | 0.0 | 0.00 | 0.18 | 0.00 | 1013.7 | |
| 20260905113104 | -43 | 0 | 0.0 | 0.0 | 0.00 | 0.18 | 0.00 | 1013.7 | |
| 20260905111608 | -43 | 0 | 0.0 | 0.0 | 0.00 | 0.18 | 0.00 | 1013.7 | |
| 20260905110101 | -43 | 0 | 0.0 | 0.0 | 0.00 | 0.18 | 0.00 | 1013.4 | |
| 20260905104557 | -43 | 0 | 0.0 | 0.0 | 0.00 | 0.18 | 0.00 | 1013.4 | |
| 20260905103056 | -43 | 0 | 0.0 | 3.2 | 0.00 | 0.18 | 0.00 | 1013.2 | |
| 20260905101602 | -43 | 0 | 0.0 | 3.2 | 0.00 | 0.18 | 0.00 | 1013.1 | |
| 20260905094600 | -43 | 346 | 0.0 | 3.2 | 0.00 | 0.18 | 0.00 | 1013.2 | |
| 20260905093055 | -43 | 0 | 0.0 | 3.2 | 0.00 | 0.18 | 0.00 | 1013.2 | |
| 20260905091608 | -43 | 0 | 0.0 | 3.2 | 0.00 | 0.18 | 0.00 | 1013.2 | |
| 20260905090057 | -42 | 0 | 0.0 | 1.6 | 0.00 | 0.18 | 0.00 | 1013.1 | |
| 20260905084617 | -42 | 212 | 0.0 | 8.0 | 0.00 | 0.18 | 0.00 | 1013.1 | |
| 20260905083059 | -42 | 188 | 0.0 | 6.4 | 0.00 | 0.18 | 0.00 | 1013.0 | |
| 20260905081603 | -42 | 196 | 0.0 | 6.4 | 0.00 | 0.18 | 0.00 | 1013.0 | |
| 20260905080059 | -43 | 148 | 0.0 | 3.2 | 0.00 | 0.18 | 0.00 | 1013.0 | |
| 20260905074605 | -43 | 0 | 0.0 | 3.2 | 0.00 | 0.18 | 0.00 | 1013.0 | |
| 20260905073107 | -43 | 148 | 0.0 | 6.4 | 0.00 | 0.18 | 0.00 | 1013.0 | |
| 20260905071559 | -43 | 0 | 0.0 | 3.2 | 0.00 | 0.18 | 0.00 | 1013.0 | |
| 20260905070106 | -43 | 0 | 0.0 | 0.0 | 0.00 | 0.18 | 0.00 | 1012.9 | |
| 20260905064555 | -43 | 0 | 0.0 | 0.0 | 0.00 | 0.18 | 0.00 | 1012.9 | |
| 20260905063054 | -43 | 0 | 0.0 | 4.8 | 0.00 | 0.18 | 0.00 | 1012.8 | |
| 20260905061610 | -43 | 0 | 0.0 | 0.0 | 0.00 | 0.18 | 0.00 | 1013.0 | |
| 20260905060105 | -43 | 0 | 0.0 | 0.0 | 0.00 | 0.18 | 0.00 | 1013.2 | |
| 20260905054557 | -43 | 0 | 0.0 | 0.0 | 0.00 | 0.23 | 0.00 | 1013.1 | |
| 20260905053135 | -43 | 0 | 0.0 | 0.0 | 0.00 | 0.23 | 0.00 | 1013.2 | |
| 20260905051559 | -43 | 0 | 0.0 | 0.0 | 0.00 | 0.23 | 0.00 | 1013.4 | |
| 20260905050105 | -43 | 0 | 0.0 | 0.0 | 0.00 | 0.23 | 0.00 | 1013.5 | |
| 20260905044558 | -43 | 0 | 0.0 | 1.6 | 0.00 | 0.51 | 0.23 | 1013.6 | |
| 20260905043055 | -43 | 0 | 0.0 | 1.6 | 0.00 | 0.51 | 0.23 | 1013.9 | |
| 20260905041553 | -43 | 0 | 0.0 | 3.2 | 0.00 | 0.51 | 0.23 | 1013.9 | |
| 20260905040057 | -43 | 0 | 0.0 | 0.0 | 0.00 | 0.51 | 0.23 | 1014.0 | |
| 20260905034553 | -43 | 0 | 0.0 | 0.0 | 0.00 | 0.51 | 0.23 | 1014.0 | |
| 20260905033059 | -43 | 0 | 0.0 | 0.0 | 0.00 | 0.51 | 0.23 | 1014.1 | |
| 20260905031602 | -43 | 0 | 0.0 | 3.2 | 0.00 | 0.51 | 0.23 | 1014.3 | |
| 20260905030056 | -43 | 0 | 0.0 | 3.2 | 0.00 | 0.51 | 0.23 | 1014.3 | |
| 20260905024623 | -43 | 89 | 1.6 | 6.4 | 0.00 | 0.51 | 0.23 | 1014.3 |